User: anonymous   Login
Location: Caltech
(34.1382°N, 118.1253°W)
Time: 08:25:01
(UTC-07:00)
Language:

OAO 1 Rocket - Orbit

View from above orbital plane
View from above orbital plane
View from above satellite
View from above satellite

Ground track
Ground track

The orbit data is extracted from the following two-line orbital elements,

1 02144U 66031B   16149.55247213  .00000052  00000-0  21260-4 0  9999
2 02144  35.0411 171.2209 0008680 331.6777  28.3440 14.42554469632539
Epoch (UTC): 28 May 2016 13:15:33
Eccentricity: 0.0008680
inclination: 35.0411°
perigee height: 744 km
apogee height: 756 km
right ascension of ascending node: 171.2209°
argument of perigee: 331.6777°
revolutions per day: 14.42554469
mean anomaly at epoch: 28.3440°
orbit number at epoch: 63253

The dashed part of the orbit path shows where the satellite is in the earth's shadow,  

DLR